World > North America > United States > Texas
Hourly regional weather for De Leon, TexasDe Leon, Texas Regional Hourly Weather

De Leon, Texas Regional Weather

regional weather de leon, txHOURLY REGIONAL WEATHER FOR DE LEON, TX
Lat: 32.11N, Lon: 98.54W 
Web Search

Helpful Tip: Type the letters wx in the search engine next time you need to find us.

Feedback


°F Click to change De Leon hourly weather to Imperial units.Click to change De Leon hourly weather to Metric units. °C
De Leon Weather Map
UTC Time: 11/28/2021, 02:36
Your Time:

De Leon, TX Regional Weather

Expires:202111280300;;538360
ASUS44 KFWD 280215
RWRTX 
NORTH TEXAS HOURLY WEATHER ROUNDUP
NATIONAL WEATHER SERVICE FORT WORTH TX
800 PM CST SAT NOV 27 2021

NOTE: "FAIR" INDICATES FEW OR NO CLOUDS BELOW 12,000 FEET WITH NO
SIGNIFICANT WEATHER AND/OR OBSTRUCTIONS TO VISIBILITY.


TXZ083>090-098>101-113>116-127>130-139>142-154-155-280300-
WESTERN NORTH TEXAS
  
CITY           SKY/WX    TMP DP  RH WIND       PRES   REMARKS
WICHITA FALLS  FAIR      50  47  89 SW8       30.08R                  
WF-KICKAPOO    FAIR      51  49  93 S5        30.10S                  
VERNON         FAIR      48  39  70 S6        30.11R                  
ABILENE        CLOUDY    54  46  74 CALM      30.10R                  
ABILENE-DYESS  MOCLDY    51  44  77 CALM      30.08R                  
GRAHAM         MOCLDY    49  49  99 CALM      30.08S                  
BRECKENRIDGE   CLOUDY    53  53 100 CALM      30.09R                  
CISCO          CLOUDY    52  48  87 CALM      30.07R                  
EASTLAND       CLOUDY    49  47  92 CALM      30.09R                  
RANGER         CLOUDY    51  50  98 CALM      30.09R                  
MINERAL WELLS  FOG       52  50  93 CALM      30.08R VSB 1/2          
STEPHENVILLE   CLOUDY    52  50  93 CALM      30.12S                  
COMANCHE       CLOUDY    51  51 100 SW3       30.10S                  
BROWNWOOD      CLOUDY    50  50 100 SE3       30.10R                  
COLEMAN        MOCLDY    50  47  90 CALM      30.10R                  
BRADY            N/A     48  46  93 S3          N/A                   
SAN SABA       CLOUDY    51  49  95 S3        30.12R                  
$$


SKY/WX - Weather  TMP - Temperature  DP - Dew Point  RH - Relative Humidity
WIND - Wind Direction/Speed PRES - Barometric Pressure VSB - Visibility
WCI - Wind Chill Index E13G22 Wind - East Wind 13 mph/Gusts of 22 mph